Location: Forst
(46.9333°N, 15.4333°E)
Time: 15:11:12
(UTC+00:00)

USA 267 - Pass Details

Date: 01 December 2020
Orbit: 1100 x 1107 km, 123.0° (Epoch: 18 January)

Event Time Altitude Azimuth Distance (km) Brightness Sun altitude
Exits shadow 17:34:03 46° 80° (E) 1,454 3.4 -23.6°
Maximum altitude 17:35:51 61° 27° (NNE) 1,240 3.3 -23.9°
Drops below altitude 10° 17:42:17 10° 309° (NW) 2,969 6.1 -25.0°
Sets 17:44:48 0° 306° (NW) 3,929 6.9 -25.4°
